owner,sensor,date,latitude,longitude,vertical_datum,direction_of_sea_water_velocity,sea_water_speed,upward_sea_water_velocity,qcFlag 
TABS,ioos:station:wmo:42050:1,2006-08-01T00:00:00Z,28.8425,-94.2433,2.0,33.72251485,9.834836043,-99999.0,'11133222,11111222,99999999' 
TABS,ioos:station:wmo:42050:1,2006-08-01T00:30:00Z,28.8425,-94.2433,2.0,28.77419839,12.29856902,-99999.0,'11111222,11111222,99999999' 
TABS,ioos:station:wmo:42050:1,2006-08-01T01:00:00Z,28.8425,-94.2433,2.0,37.02062616,12.17404206,-99999.0,'11111222,11111222,99999999' 
TABS,ioos:station:wmo:42050:1,2006-08-01T01:30:00Z,28.8425,-94.2433,2.0,19.47230422,2.969865317,-99999.0,'11133222,11111222,99999999' 
TABS,ioos:station:wmo:42050:1,2006-08-01T02:00:00Z,28.8425,-94.2433,2.0,13.89897465,7.077209902,-99999.0,'11133222,11111222,99999999' 
TABS,ioos:station:wmo:42050:1,2006-08-01T02:30:00Z,28.8425,-94.2433,2.0,21.55469518,10.34332635,-99999.0,'11111222,11111222,99999999' 
TABS,ioos:station:wmo:42050:1,2006-08-01T03:00:00Z,28.8425,-94.2433,2.0,27.28813459,9.924459683,-99999.0,'11133222,11111222,99999999' 
TABS,ioos:station:wmo:42050:1,2006-08-01T03:30:00Z,28.8425,-94.2433,2.0,17.3920334,9.032961862,-99999.0,'11133222,11111222,99999999' 
TABS,ioos:station:wmo:42050:1,2006-08-01T04:00:00Z,28.8425,-94.2433,2.0,20.07394472,9.177521452,-99999.0,'11133222,11111222,99999999' 
TABS,ioos:station:wmo:42050:1,2006-08-01T04:30:00Z,28.8425,-94.2433,2.0,16.62170209,10.59261063,-99999.0,'11111222,11111222,99999999' 
TABS,ioos:station:wmo:42050:1,2006-08-01T05:00:00Z,28.8425,-94.2433,2.0,16.84981275,9.48730204,-99999.0,'11133222,11111222,99999999' 
TABS,ioos:station:wmo:42050:1,2006-08-01T05:30:00Z,28.8425,-94.2433,2.0,13.80989333,8.588253606,-99999.0,'11133222,11111222,99999999' 
TABS,ioos:station:wmo:42050:1,2006-08-01T06:00:00Z,28.8425,-94.2433,2.0,17.24162954,11.84213663,-99999.0,'11111222,11111222,99999999' 
TABS,ioos:station:wmo:42050:1,2006-08-01T06:30:00Z,28.8425,-94.2433,2.0,25.55510151,13.44533004,-99999.0,'11111222,11111222,99999999' 
TABS,ioos:station:wmo:42050:1,2006-08-01T07:00:00Z,28.8425,-94.2433,2.0,18.24151206,15.90950973,-99999.0,'11111222,11111222,99999999' 
TABS,ioos:station:wmo:42050:1,2006-08-01T07:30:00Z,28.8425,-94.2433,2.0,24.42878757,15.47540306,-99999.0,'11111222,11111222,99999999' 
TABS,ioos:station:wmo:42050:1,2006-08-01T08:00:00Z,28.8425,-94.2433,2.0,25.32046002,17.91065884,-99999.0,'11111222,11111222,99999999' 
TABS,ioos:station:wmo:42050:1,2006-08-01T08:30:00Z,28.8425,-94.2433,2.0,25.60233814,19.69359541,-99999.0,'11111222,11111222,99999999' 
TABS,ioos:station:wmo:42050:1,2006-08-01T09:00:00Z,28.8425,-94.2433,2.0,27.20276384,20.49706808,-99999.0,'11111222,11111222,99999999' 
TABS,ioos:station:wmo:42050:1,2006-08-01T09:30:00Z,28.8425,-94.2433,2.0,28.16700929,19.99826242,-99999.0,'11111222,11111222,99999999' 
TABS,ioos:station:wmo:42050:1,2006-08-01T10:00:00Z,28.8425,-94.2433,2.0,26.98442846,18.33624825,-99999.0,'11111222,11111222,99999999' 
TABS,ioos:station:wmo:42050:1,2006-08-01T10:30:00Z,28.8425,-94.2433,2.0,25.92096181,17.50057428,-99999.0,'11111222,11111222,99999999' 
TABS,ioos:station:wmo:42050:1,2006-08-01T11:00:00Z,28.8425,-94.2433,2.0,29.26254396,5.89185879,-99999.0,'11133222,11111222,99999999' 
TABS,ioos:station:wmo:42050:1,2006-08-01T11:30:00Z,28.8425,-94.2433,2.0,35.21772107,14.56605643,-99999.0,'11111222,11111222,99999999' 
TABS,ioos:station:wmo:42050:1,2006-08-01T12:00:00Z,28.8425,-94.2433,2.0,14.27690509,9.245539465,-99999.0,'11133222,11111222,99999999' 
TABS,ioos:station:wmo:42050:1,2006-08-01T12:30:00Z,28.8425,-94.2433,2.0,49.05488575,10.30004369,-99999.0,'11111222,11111222,99999999' 
TABS,ioos:station:wmo:42050:1,2006-08-01T13:00:00Z,28.8425,-94.2433,2.0,81.77872434,15.10523419,-99999.0,'11111222,11111222,99999999' 
TABS,ioos:station:wmo:42050:1,2006-08-01T13:30:00Z,28.8425,-94.2433,2.0,89.25594254,13.86116878,-99999.0,'11111222,11111222,99999999' 
TABS,ioos:station:wmo:42050:1,2006-08-01T14:00:00Z,28.8425,-94.2433,2.0,98.72725729,13.84024566,-99999.0,'11111222,11111222,99999999' 
TABS,ioos:station:wmo:42050:1,2006-08-01T14:30:00Z,28.8425,-94.2433,2.0,101.5047884,14.99120409,-99999.0,'11111222,11111222,99999999' 
TABS,ioos:station:wmo:42050:1,2006-08-01T15:00:00Z,28.8425,-94.2433,2.0,114.7155392,13.4412983,-99999.0,'11111222,11111222,99999999' 
TABS,ioos:station:wmo:42050:1,2006-08-01T15:30:00Z,28.8425,-94.2433,2.0,119.2191784,10.81628402,-99999.0,'11111222,11111222,99999999' 
TABS,ioos:station:wmo:42050:1,2006-08-01T16:00:00Z,28.8425,-94.2433,2.0,126.5980861,11.80813279,-99999.0,'11111222,11111222,99999999' 
TABS,ioos:station:wmo:42050:1,2006-08-01T16:30:00Z,28.8425,-94.2433,2.0,123.9190392,9.712878049,-99999.0,'11133222,11111222,99999999' 
TABS,ioos:station:wmo:42050:1,2006-08-01T17:00:00Z,28.8425,-94.2433,2.0,133.0656925,7.542055423,-99999.0,'11133222,11111222,99999999' 
TABS,ioos:station:wmo:42050:1,2006-08-01T17:30:00Z,28.8425,-94.2433,2.0,148.8822231,9.578230526,-99999.0,'11133222,11111222,99999999' 
TABS,ioos:station:wmo:42050:1,2006-08-01T18:00:00Z,28.8425,-94.2433,2.0,144.4834548,6.26574816,-99999.0,'11133222,11111222,99999999' 
TABS,ioos:station:wmo:42050:1,2006-08-01T18:30:00Z,28.8425,-94.2433,2.0,143.4351665,7.134101205,-99999.0,'11133222,11111222,99999999' 
TABS,ioos:station:wmo:42050:1,2006-08-01T19:00:00Z,28.8425,-94.2433,2.0,165.2143324,5.564242985,-99999.0,'11133222,11111222,99999999' 
TABS,ioos:station:wmo:42050:1,2006-08-01T19:30:00Z,28.8425,-94.2433,2.0,131.6587437,3.761130149,-99999.0,'11133222,11111222,99999999' 
TABS,ioos:station:wmo:42050:1,2006-08-01T20:00:00Z,28.8425,-94.2433,2.0,125.4655851,2.774833328,-99999.0,'11133222,11111222,99999999' 
TABS,ioos:station:wmo:42050:1,2006-08-01T20:30:00Z,28.8425,-94.2433,2.0,134.1116614,1.82455474,-99999.0,'11133222,11111222,99999999' 
TABS,ioos:station:wmo:42050:1,2006-08-01T21:00:00Z,28.8425,-94.2433,2.0,207.5420083,2.097736876,-99999.0,'11133222,11111222,99999999' 
TABS,ioos:station:wmo:42050:1,2006-08-01T21:30:00Z,28.8425,-94.2433,2.0,279.7756189,2.709335712,-99999.0,'11133222,11111222,99999999' 
TABS,ioos:station:wmo:42050:1,2006-08-01T22:00:00Z,28.8425,-94.2433,2.0,310.0865284,3.136941185,-99999.0,'11133222,11111222,99999999' 
TABS,ioos:station:wmo:42050:1,2006-08-01T22:30:00Z,28.8425,-94.2433,2.0,305.5505887,5.297405025,-99999.0,'11133222,11111222,99999999' 
TABS,ioos:station:wmo:42050:1,2006-08-01T23:00:00Z,28.8425,-94.2433,2.0,310.0116559,4.634964941,-99999.0,'11133222,11111222,99999999' 
TABS,ioos:station:wmo:42050:1,2006-08-01T23:30:00Z,28.8425,-94.2433,2.0,320.5757963,5.967930965,-99999.0,'11133222,11111222,99999999' 
TABS,ioos:station:wmo:42050:1,2006-08-02T00:00:00Z,28.8425,-94.2433,2.0,321.849496,10.02050398,-99999.0,'11111222,11111222,99999999' 
TABS,ioos:station:wmo:42050:1,2006-08-02T00:30:00Z,28.8425,-94.2433,2.0,322.1816533,11.59558968,-99999.0,'11111222,11111222,99999999' 
TABS,ioos:station:wmo:42050:1,2006-08-02T01:00:00Z,28.8425,-94.2433,2.0,322.9067096,14.85611322,-99999.0,'11111222,11111222,99999999' 
TABS,ioos:station:wmo:42050:1,2006-08-02T01:30:00Z,28.8425,-94.2433,2.0,338.1855398,7.992327571,-99999.0,'11133222,11111222,99999999' 
TABS,ioos:station:wmo:42050:1,2006-08-02T02:00:00Z,28.8425,-94.2433,2.0,344.3492191,12.56591023,-99999.0,'11111222,11111222,99999999' 
TABS,ioos:station:wmo:42050:1,2006-08-02T02:30:00Z,28.8425,-94.2433,2.0,341.4202003,17.48112697,-99999.0,'11111222,11111222,99999999' 
TABS,ioos:station:wmo:42050:1,2006-08-02T03:00:00Z,28.8425,-94.2433,2.0,337.3349572,15.51846642,-99999.0,'11111222,11111222,99999999' 
TABS,ioos:station:wmo:42050:1,2006-08-02T03:30:00Z,28.8425,-94.2433,2.0,331.8246957,17.98061734,-99999.0,'11111222,11111222,99999999' 
TABS,ioos:station:wmo:42050:1,2006-08-02T04:00:00Z,28.8425,-94.2433,2.0,335.398387,15.01282785,-99999.0,'11111222,11111222,99999999' 
TABS,ioos:station:wmo:42050:1,2006-08-02T04:30:00Z,28.8425,-94.2433,2.0,357.3211608,13.26449773,-99999.0,'11111222,11111222,99999999' 
TABS,ioos:station:wmo:42050:1,2006-08-02T05:00:00Z,28.8425,-94.2433,2.0,6.36440668,13.17116927,-99999.0,'11111222,11111222,99999999' 
TABS,ioos:station:wmo:42050:1,2006-08-02T05:30:00Z,28.8425,-94.2433,2.0,13.87981489,12.42272112,-99999.0,'11111222,11111222,99999999' 
TABS,ioos:station:wmo:42050:1,2006-08-02T06:00:00Z,28.8425,-94.2433,2.0,8.354136162,9.773704518,-99999.0,'11133222,11111222,99999999' 
TABS,ioos:station:wmo:42050:1,2006-08-02T06:30:00Z,28.8425,-94.2433,2.0,10.24558726,10.34495046,-99999.0,'11111222,11111222,99999999' 
TABS,ioos:station:wmo:42050:1,2006-08-02T07:00:00Z,28.8425,-94.2433,2.0,11.06136705,9.486226858,-99999.0,'11133222,11111222,99999999' 
TABS,ioos:station:wmo:42050:1,2006-08-02T07:30:00Z,28.8425,-94.2433,2.0,6.69633677,9.776691669,-99999.0,'11133222,11111222,99999999' 
TABS,ioos:station:wmo:42050:1,2006-08-02T08:00:00Z,28.8425,-94.2433,2.0,27.26731689,9.123842392,-99999.0,'11133222,11111222,99999999' 
TABS,ioos:station:wmo:42050:1,2006-08-02T08:30:00Z,28.8425,-94.2433,2.0,2.496532496,7.346972165,-99999.0,'11133222,11111222,99999999' 
TABS,ioos:station:wmo:42050:1,2006-08-02T09:00:00Z,28.8425,-94.2433,2.0,16.43391944,9.508443616,-99999.0,'11133222,11111222,99999999' 
TABS,ioos:station:wmo:42050:1,2006-08-02T09:30:00Z,28.8425,-94.2433,2.0,14.98624807,8.778570499,-99999.0,'11133222,11111222,99999999' 
TABS,ioos:station:wmo:42050:1,2006-08-02T10:00:00Z,28.8425,-94.2433,2.0,7.781608561,9.527733204,-99999.0,'11133222,11111222,99999999' 
TABS,ioos:station:wmo:42050:1,2006-08-02T10:30:00Z,28.8425,-94.2433,2.0,25.76726161,8.028262577,-99999.0,'11133222,11111222,99999999' 
TABS,ioos:station:wmo:42050:1,2006-08-02T11:00:00Z,28.8425,-94.2433,2.0,18.14816208,5.682684225,-99999.0,'11133222,11111222,99999999' 
TABS,ioos:station:wmo:42050:1,2006-08-02T11:30:00Z,28.8425,-94.2433,2.0,25.73216018,9.535601711,-99999.0,'11133222,11111222,99999999' 
TABS,ioos:station:wmo:42050:1,2006-08-02T12:00:00Z,28.8425,-94.2433,2.0,27.16513199,8.542247948,-99999.0,'11133222,11111222,99999999' 
TABS,ioos:station:wmo:42050:1,2006-08-02T12:30:00Z,28.8425,-94.2433,2.0,18.17914329,8.493962562,-99999.0,'11133222,11111222,99999999' 
TABS,ioos:station:wmo:42050:1,2006-08-02T13:00:00Z,28.8425,-94.2433,2.0,12.65745423,9.675122738,-99999.0,'11133222,11111222,99999999' 
TABS,ioos:station:wmo:42050:1,2006-08-02T13:30:00Z,28.8425,-94.2433,2.0,8.693910424,7.475894595,-99999.0,'11133222,11111222,99999999' 
TABS,ioos:station:wmo:42050:1,2006-08-02T14:00:00Z,28.8425,-94.2433,2.0,357.3865319,7.017300051,-99999.0,'11133222,11111222,99999999' 
TABS,ioos:station:wmo:42050:1,2006-08-02T14:30:00Z,28.8425,-94.2433,2.0,356.6533996,10.27752889,-99999.0,'11111222,11111222,99999999' 
TABS,ioos:station:wmo:42050:1,2006-08-02T15:00:00Z,28.8425,-94.2433,2.0,352.7738353,7.71125152,-99999.0,'11133222,11111222,99999999' 
TABS,ioos:station:wmo:42050:1,2006-08-02T15:30:00Z,28.8425,-94.2433,2.0,356.8644993,12.24833866,-99999.0,'11111222,11111222,99999999' 
TABS,ioos:station:wmo:42050:1,2006-08-02T16:00:00Z,28.8425,-94.2433,2.0,349.369575,9.594675607,-99999.0,'11133222,11111222,99999999' 
TABS,ioos:station:wmo:42050:1,2006-08-02T16:30:00Z,28.8425,-94.2433,2.0,331.0007345,10.10720535,-99999.0,'11111222,11111222,99999999' 
TABS,ioos:station:wmo:42050:1,2006-08-02T17:00:00Z,28.8425,-94.2433,2.0,315.8016011,10.11261588,-99999.0,'11111222,11111222,99999999' 
TABS,ioos:station:wmo:42050:1,2006-08-02T17:30:00Z,28.8425,-94.2433,2.0,322.1213648,12.71997248,-99999.0,'11111222,11111222,99999999' 
TABS,ioos:station:wmo:42050:1,2006-08-02T18:00:00Z,28.8425,-94.2433,2.0,313.9889711,13.62099849,-99999.0,'11111222,11111222,99999999' 
TABS,ioos:station:wmo:42050:1,2006-08-02T18:30:00Z,28.8425,-94.2433,2.0,317.2705103,14.28062324,-99999.0,'11111222,11111222,99999999' 
TABS,ioos:station:wmo:42050:1,2006-08-02T19:00:00Z,28.8425,-94.2433,2.0,315.9011929,16.64027944,-99999.0,'11111222,11111222,99999999' 
TABS,ioos:station:wmo:42050:1,2006-08-02T19:30:00Z,28.8425,-94.2433,2.0,321.7748666,14.62609312,-99999.0,'11111222,11111222,99999999' 
TABS,ioos:station:wmo:42050:1,2006-08-02T20:00:00Z,28.8425,-94.2433,2.0,328.4053612,17.90382361,-99999.0,'11111222,11111222,99999999' 
TABS,ioos:station:wmo:42050:1,2006-08-02T20:30:00Z,28.8425,-94.2433,2.0,327.9009316,20.68164645,-99999.0,'11111222,11111222,99999999' 
TABS,ioos:station:wmo:42050:1,2006-08-02T21:00:00Z,28.8425,-94.2433,2.0,325.2103234,23.69561141,-99999.0,'11111222,11111222,99999999' 
TABS,ioos:station:wmo:42050:1,2006-08-02T21:30:00Z,28.8425,-94.2433,2.0,323.4434869,25.62038251,-99999.0,'11111222,11111222,99999999' 
TABS,ioos:station:wmo:42050:1,2006-08-02T22:00:00Z,28.8425,-94.2433,2.0,324.4796006,23.52852312,-99999.0,'11111222,11111222,99999999' 
TABS,ioos:station:wmo:42050:1,2006-08-02T22:30:00Z,28.8425,-94.2433,2.0,324.5880134,23.90173425,-99999.0,'11111222,11111222,99999999' 
TABS,ioos:station:wmo:42050:1,2006-08-02T23:00:00Z,28.8425,-94.2433,2.0,324.3663932,40.14734113,-99999.0,'11111222,11111222,99999999' 
TABS,ioos:station:wmo:42050:1,2006-08-02T23:30:00Z,28.8425,-94.2433,2.0,323.6526216,40.37567708,-99999.0,'11111222,11111222,99999999' 
TABS,ioos:station:wmo:42050:1,2006-08-03T00:00:00Z,28.8425,-94.2433,2.0,325.9669513,40.73791355,-99999.0,'11111222,11111222,99999999' 
TABS,ioos:station:wmo:42050:1,2006-08-03T00:30:00Z,28.8425,-94.2433,2.0,323.6582573,40.1617044,-99999.0,'11111222,11111222,99999999' 
TABS,ioos:station:wmo:42050:1,2006-08-03T01:00:00Z,28.8425,-94.2433,2.0,323.6666277,41.67182501,-99999.0,'11111222,11111222,99999999' 
TABS,ioos:station:wmo:42050:1,2006-08-03T01:30:00Z,28.8425,-94.2433,2.0,339.7966425,10.65562762,-99999.0,'11111222,11111222,99999999' 
TABS,ioos:station:wmo:42050:1,2006-08-03T02:00:00Z,28.8425,-94.2433,2.0,334.4850984,36.1230342,-99999.0,'11111222,11111222,99999999' 
TABS,ioos:station:wmo:42050:1,2006-08-03T02:30:00Z,28.8425,-94.2433,2.0,327.9201423,38.99417521,-99999.0,'11111222,11111222,99999999' 
TABS,ioos:station:wmo:42050:1,2006-08-03T03:00:00Z,28.8425,-94.2433,2.0,337.9069331,34.98916975,-99999.0,'11111222,11111222,99999999' 
TABS,ioos:station:wmo:42050:1,2006-08-03T03:30:00Z,28.8425,-94.2433,2.0,332.8236834,33.52056831,-99999.0,'11111222,11111222,99999999' 
TABS,ioos:station:wmo:42050:1,2006-08-03T04:00:00Z,28.8425,-94.2433,2.0,335.0849576,31.68927421,-99999.0,'11111222,11111222,99999999' 
TABS,ioos:station:wmo:42050:1,2006-08-03T04:30:00Z,28.8425,-94.2433,2.0,329.4255912,34.60063728,-99999.0,'11111222,11111222,99999999' 
TABS,ioos:station:wmo:42050:1,2006-08-03T05:00:00Z,28.8425,-94.2433,2.0,326.3008719,33.99202848,-99999.0,'11111222,11111222,99999999' 
TABS,ioos:station:wmo:42050:1,2006-08-03T05:30:00Z,28.8425,-94.2433,2.0,325.7288879,31.98288605,-99999.0,'11111222,11111222,99999999' 
TABS,ioos:station:wmo:42050:1,2006-08-03T06:00:00Z,28.8425,-94.2433,2.0,327.8039512,29.89740624,-99999.0,'11111222,11111222,99999999' 
TABS,ioos:station:wmo:42050:1,2006-08-03T06:30:00Z,28.8425,-94.2433,2.0,330.5186016,29.97082915,-99999.0,'11111222,11111222,99999999' 
TABS,ioos:station:wmo:42050:1,2006-08-03T07:00:00Z,28.8425,-94.2433,2.0,325.467782,28.29554205,-99999.0,'11111222,11111222,99999999' 
TABS,ioos:station:wmo:42050:1,2006-08-03T07:30:00Z,28.8425,-94.2433,2.0,326.1287089,25.38875539,-99999.0,'11111222,11111222,99999999' 
TABS,ioos:station:wmo:42050:1,2006-08-03T08:00:00Z,28.8425,-94.2433,2.0,328.5030926,24.49963469,-99999.0,'11111222,11111222,99999999' 
TABS,ioos:station:wmo:42050:1,2006-08-03T08:30:00Z,28.8425,-94.2433,2.0,327.4982402,24.21232124,-99999.0,'11111222,11111222,99999999' 
TABS,ioos:station:wmo:42050:1,2006-08-03T09:00:00Z,28.8425,-94.2433,2.0,324.3517824,25.23973455,-99999.0,'11111222,11111222,99999999' 
TABS,ioos:station:wmo:42050:1,2006-08-03T09:30:00Z,28.8425,-94.2433,2.0,321.6563032,25.50043921,-99999.0,'11111222,11111222,99999999' 
TABS,ioos:station:wmo:42050:1,2006-08-03T10:00:00Z,28.8425,-94.2433,2.0,324.9581306,26.21133533,-99999.0,'11111222,11111222,99999999' 
TABS,ioos:station:wmo:42050:1,2006-08-03T10:30:00Z,28.8425,-94.2433,2.0,323.9513654,23.45040725,-99999.0,'11111222,11111222,99999999' 
TABS,ioos:station:wmo:42050:1,2006-08-03T11:00:00Z,28.8425,-94.2433,2.0,306.7162811,8.932032244,-99999.0,'11133222,11111222,99999999' 
TABS,ioos:station:wmo:42050:1,2006-08-03T11:30:00Z,28.8425,-94.2433,2.0,324.4456911,23.61222141,-99999.0,'11111222,11111222,99999999' 
TABS,ioos:station:wmo:42050:1,2006-08-03T12:00:00Z,28.8425,-94.2433,2.0,325.7222597,24.32488438,-99999.0,'11111222,11111222,99999999' 
TABS,ioos:station:wmo:42050:1,2006-08-03T12:30:00Z,28.8425,-94.2433,2.0,320.351467,24.33862157,-99999.0,'11111222,11111222,99999999' 
TABS,ioos:station:wmo:42050:1,2006-08-03T13:00:00Z,28.8425,-94.2433,2.0,317.6751041,23.94043442,-99999.0,'11111222,11111222,99999999' 
TABS,ioos:station:wmo:42050:1,2006-08-03T13:30:00Z,28.8425,-94.2433,2.0,315.938955,24.1721534,-99999.0,'11111222,11111222,99999999' 
TABS,ioos:station:wmo:42050:1,2006-08-03T14:00:00Z,28.8425,-94.2433,2.0,308.53552,21.54109793,-99999.0,'11111222,11111222,99999999' 
TABS,ioos:station:wmo:42050:1,2006-08-03T14:30:00Z,28.8425,-94.2433,2.0,313.8410634,23.41709845,-99999.0,'11111222,11111222,99999999' 
TABS,ioos:station:wmo:42050:1,2006-08-03T15:00:00Z,28.8425,-94.2433,2.0,313.4382741,20.49249863,-99999.0,'11111222,11111222,99999999' 
TABS,ioos:station:wmo:42050:1,2006-08-03T15:30:00Z,28.8425,-94.2433,2.0,306.9129465,21.46200596,-99999.0,'11111222,11111222,99999999' 
TABS,ioos:station:wmo:42050:1,2006-08-03T16:00:00Z,28.8425,-94.2433,2.0,302.0057293,21.79249642,-99999.0,'11111222,11111222,99999999' 
TABS,ioos:station:wmo:42050:1,2006-08-03T16:30:00Z,28.8425,-94.2433,2.0,295.0339378,20.7491783,-99999.0,'11111222,11111222,99999999' 
TABS,ioos:station:wmo:42050:1,2006-08-03T17:00:00Z,28.8425,-94.2433,2.0,292.1991219,20.6182492,-99999.0,'11111222,11111222,99999999' 
TABS,ioos:station:wmo:42050:1,2006-08-03T17:30:00Z,28.8425,-94.2433,2.0,293.4167601,22.79758759,-99999.0,'11111222,11111222,99999999' 
TABS,ioos:station:wmo:42050:1,2006-08-03T18:00:00Z,28.8425,-94.2433,2.0,285.4101161,21.45116314,-99999.0,'11111222,11111222,99999999' 
TABS,ioos:station:wmo:42050:1,2006-08-03T18:30:00Z,28.8425,-94.2433,2.0,277.3172017,21.12199328,-99999.0,'11111222,11111222,99999999' 
TABS,ioos:station:wmo:42050:1,2006-08-03T19:00:00Z,28.8425,-94.2433,2.0,284.9664048,23.46598602,-99999.0,'11111222,11111222,99999999' 
TABS,ioos:station:wmo:42050:1,2006-08-03T19:30:00Z,28.8425,-94.2433,2.0,287.7635961,25.89450907,-99999.0,'11111222,11111222,99999999' 
TABS,ioos:station:wmo:42050:1,2006-08-03T20:00:00Z,28.8425,-94.2433,2.0,293.5794933,28.07393453,-99999.0,'11111222,11111222,99999999' 
TABS,ioos:station:wmo:42050:1,2006-08-03T20:30:00Z,28.8425,-94.2433,2.0,297.7624582,29.96985152,-99999.0,'11111222,11111222,99999999' 
TABS,ioos:station:wmo:42050:1,2006-08-03T21:00:00Z,28.8425,-94.2433,2.0,298.8078693,30.63075579,-99999.0,'11111222,11111222,99999999' 
TABS,ioos:station:wmo:42050:1,2006-08-03T21:30:00Z,28.8425,-94.2433,2.0,301.6570202,35.87841273,-99999.0,'11111222,11111222,99999999' 
TABS,ioos:station:wmo:42050:1,2006-08-03T22:00:00Z,28.8425,-94.2433,2.0,304.5525226,38.52551622,-99999.0,'11111222,11111222,99999999' 
TABS,ioos:station:wmo:42050:1,2006-08-03T22:30:00Z,28.8425,-94.2433,2.0,304.7557451,37.88979942,-99999.0,'11111222,11111222,99999999' 
TABS,ioos:station:wmo:42050:1,2006-08-03T23:00:00Z,28.8425,-94.2433,2.0,308.2274004,42.38989148,-99999.0,'11111222,11111222,99999999' 
TABS,ioos:station:wmo:42050:1,2006-08-03T23:30:00Z,28.8425,-94.2433,2.0,307.7300364,43.5829072,-99999.0,'11111222,11111222,99999999' 
TABS,ioos:station:wmo:42050:1,2006-08-04T00:00:00Z,28.8425,-94.2433,2.0,310.6254508,39.11798819,-99999.0,'11111222,11111222,99999999' 
TABS,ioos:station:wmo:42050:1,2006-08-04T00:30:00Z,28.8425,-94.2433,2.0,312.4606786,43.56521204,-99999.0,'11111222,11111222,99999999' 
TABS,ioos:station:wmo:42050:1,2006-08-04T01:00:00Z,28.8425,-94.2433,2.0,308.1271959,33.91616134,-99999.0,'11111222,11111222,99999999' 
TABS,ioos:station:wmo:42050:1,2006-08-04T01:30:00Z,28.8425,-94.2433,2.0,284.0366316,4.906495694,-99999.0,'11133222,11111222,99999999' 
TABS,ioos:station:wmo:42050:1,2006-08-04T02:00:00Z,28.8425,-94.2433,2.0,321.4203117,36.99447661,-99999.0,'11111222,11111222,99999999' 
TABS,ioos:station:wmo:42050:1,2006-08-04T02:30:00Z,28.8425,-94.2433,2.0,316.975977,38.14987549,-99999.0,'11111222,11111222,99999999' 
TABS,ioos:station:wmo:42050:1,2006-08-04T03:00:00Z,28.8425,-94.2433,2.0,326.3641032,32.44165532,-99999.0,'11111222,11111222,99999999' 
TABS,ioos:station:wmo:42050:1,2006-08-04T03:30:00Z,28.8425,-94.2433,2.0,330.916897,29.00745594,-99999.0,'11111222,11111222,99999999' 
TABS,ioos:station:wmo:42050:1,2006-08-04T04:00:00Z,28.8425,-94.2433,2.0,331.4279529,27.57869649,-99999.0,'11111222,11111222,99999999' 
TABS,ioos:station:wmo:42050:1,2006-08-04T04:30:00Z,28.8425,-94.2433,2.0,329.4042725,22.71202545,-99999.0,'11111222,11111222,99999999' 
TABS,ioos:station:wmo:42050:1,2006-08-04T05:00:00Z,28.8425,-94.2433,2.0,329.2285967,23.53316808,-99999.0,'11111222,11111222,99999999' 
TABS,ioos:station:wmo:42050:1,2006-08-04T05:30:00Z,28.8425,-94.2433,2.0,324.1383608,24.44378244,-99999.0,'11111222,11111222,99999999' 
TABS,ioos:station:wmo:42050:1,2006-08-04T06:00:00Z,28.8425,-94.2433,2.0,323.9446092,20.83010322,-99999.0,'11111222,11111222,99999999' 
TABS,ioos:station:wmo:42050:1,2006-08-04T06:30:00Z,28.8425,-94.2433,2.0,325.4709901,17.04221817,-99999.0,'11111222,11111222,99999999' 
TABS,ioos:station:wmo:42050:1,2006-08-04T07:00:00Z,28.8425,-94.2433,2.0,329.6391787,18.91391023,-99999.0,'11111222,11111222,99999999' 
TABS,ioos:station:wmo:42050:1,2006-08-04T07:30:00Z,28.8425,-94.2433,2.0,338.9406864,13.05176233,-99999.0,'11111222,11111222,99999999' 
TABS,ioos:station:wmo:42050:1,2006-08-04T08:00:00Z,28.8425,-94.2433,2.0,335.3894328,13.6390029,-99999.0,'11111222,11111222,99999999' 
TABS,ioos:station:wmo:42050:1,2006-08-04T08:30:00Z,28.8425,-94.2433,2.0,328.4457201,13.47193008,-99999.0,'11111222,11111222,99999999' 
TABS,ioos:station:wmo:42050:1,2006-08-04T09:00:00Z,28.8425,-94.2433,2.0,325.6242434,11.58297026,-99999.0,'11111222,11111222,99999999' 
TABS,ioos:station:wmo:42050:1,2006-08-04T09:30:00Z,28.8425,-94.2433,2.0,328.0357484,10.40812183,-99999.0,'11111222,11111222,99999999' 
TABS,ioos:station:wmo:42050:1,2006-08-04T10:00:00Z,28.8425,-94.2433,2.0,333.0472754,10.56789951,-99999.0,'11111222,11111222,99999999' 
TABS,ioos:station:wmo:42050:1,2006-08-04T10:30:00Z,28.8425,-94.2433,2.0,327.5457595,10.54730297,-99999.0,'11111222,11111222,99999999' 
TABS,ioos:station:wmo:42050:1,2006-08-04T11:00:00Z,28.8425,-94.2433,2.0,316.6686492,4.371773096,-99999.0,'11133222,11111222,99999999' 
TABS,ioos:station:wmo:42050:1,2006-08-04T11:30:00Z,28.8425,-94.2433,2.0,326.7254003,8.037816868,-99999.0,'11133222,11111222,99999999' 
TABS,ioos:station:wmo:42050:1,2006-08-04T12:00:00Z,28.8425,-94.2433,2.0,317.4274067,9.016629082,-99999.0,'11133222,11111222,99999999' 
TABS,ioos:station:wmo:42050:1,2006-08-04T12:30:00Z,28.8425,-94.2433,2.0,321.1889172,7.084066629,-99999.0,'11133222,11111222,99999999' 
TABS,ioos:station:wmo:42050:1,2006-08-04T13:00:00Z,28.8425,-94.2433,2.0,300.1689645,9.392166949,-99999.0,'11133222,11111222,99999999' 
TABS,ioos:station:wmo:42050:1,2006-08-04T13:30:00Z,28.8425,-94.2433,2.0,289.4691587,14.37172919,-99999.0,'11111222,11111222,99999999' 
TABS,ioos:station:wmo:42050:1,2006-08-04T14:00:00Z,28.8425,-94.2433,2.0,288.0465581,14.91364476,-99999.0,'11111222,11111222,99999999' 
TABS,ioos:station:wmo:42050:1,2006-08-04T14:30:00Z,28.8425,-94.2433,2.0,285.691711,13.93948708,-99999.0,'11111222,11111222,99999999' 
TABS,ioos:station:wmo:42050:1,2006-08-04T15:00:00Z,28.8425,-94.2433,2.0,285.7149689,11.59332567,-99999.0,'11111222,11111222,99999999' 
TABS,ioos:station:wmo:42050:1,2006-08-04T15:30:00Z,28.8425,-94.2433,2.0,275.5430061,12.21711914,-99999.0,'11111222,11111222,99999999' 